Regional Weather Roundup
Issued by NWS Wakefield, VA

Home | Current Version | Previous Version | Graphics & Text | Print | Product List | Glossary On
Versions: 1 2 3 4 5 6 7 8 9 10 11 12 13 14 15 16 17 18 19 20 21 22 23 24 25 26 27
000
ASUS41 KAKQ 301015
RWRAKQ

REGIONAL WEATHER ROUNDUP
NATIONAL WEATHER SERVICE WAKEFIELD VA
600 AM EDT SAT APR 30 2016

Note: "fair" indicates few or no clouds below 12,000 feet with no
significant weather and/or obstructions to visibility. * = Denotes
station may not report precipitation (e.g., rain,snow,etc.),
thunder or fog.

VAZ042-051-052>054-056-301100-
NORTHERN VIRGINIA

CITY           SKY/WX    TMP DP  RH WIND       PRES   REMARKS
WASH NATIONAL  CLOUDY    52  49  89 E9        30.15S FOG
DULLES         CLOUDY    52  49  89 CALM      30.14S FOG
FORT BELVOIR   CLOUDY    52  49  91 CALM      30.14S
QUANTICO       CLOUDY    54  50  86 E8        30.15R
FREDERICKSBRG* CLOUDY    53  53 100 CALM      30.13R
STAFFORD*      CLOUDY    51  48  89 CALM      30.18R
WARRENTON      CLOUDY    53  48  83 CALM      30.13S HAZE
CULPEPER*      CLOUDY    53  52  97 CALM      30.14S FOG
MANASSAS*      CLOUDY    52  52 100 CALM      30.14S
LEESBURG*      CLOUDY    52  52 100 CALM      30.15R FOG
WINCHESTER     FOG       50  50 100 CALM      30.13R VSB 1
FRONT ROYAL*   CLOUDY    50  50 100 CALM      30.11S VSB 1
LURAY*         CLOUDY    50  50 100 N5        30.11S FOG
$$

VAZ048-049-060>072-079>083-301100-
CENTRAL AND SOUTH CENTRAL VIRGINIA

CITY           SKY/WX    TMP DP  RH WIND       PRES   REMARKS
RICHMOND       CLOUDY    53  50  89 NE6       30.13R
CHESTERFIELD*  CLOUDY    54  41  62 NE5       30.14R
PETERSBURG*    CLOUDY    55  55 100 NE5       30.14R
HANOVER        CLOUDY    53  49  86 VRB3      30.15R
TAPPAHANNOCK*  CLOUDY    53  51  95 NE5       30.14R
QUINTON*       CLOUDY    52  51  95 CALM      30.13R
CHARLOTTSVILLE CLOUDY    53  51  93 E5        30.11S FOG
GORDONSVILLE*  CLOUDY    52  52 100 CALM      30.12S FOG
ORANGE*        CLOUDY    52  52 100 CALM      30.14S FOG
LOUISA*        CLOUDY    55  54  94 E5        30.12S
BUMPASS*       CLOUDY    51  51  97 CALM      30.13R
FARMVILLE*     CLOUDY    55  55 100 NE5       30.11R
CREWE*         CLOUDY    54  54 100 NE6       30.11R
FORT PICKETT*  NOT AVBL
CHASE CITY*    CLOUDY    56  54  95 CALM      30.10S
CLARKSVILLE*   CLOUDY    57  55  94 E5        30.09S
SOUTH HILL*    CLOUDY    55  54  99 CALM      30.16S
LAWRENCEVILLE* CLOUDY    54  54 100 CALM      30.11S
EMPORIA*       CLOUDY    54  52  94 N3        30.13S
$$

VAZ088>098-301100-
SOUTHEAST VIRGINIA

CITY           SKY/WX    TMP DP  RH WIND       PRES   REMARKS
NORFOLK        CLOUDY    55  51  86 NE7       30.11R
VIRGINIA BEACH DRIZZLE   56  51  84 NE8       30.10R
NORFOLK NAVAL  CLOUDY    56  52  86 NE7       30.13R
WEST POINT*    CLOUDY    53  51  92 CALM      30.14R
SALUDA*        CLOUDY    53  51  94 N3        30.12R
NEWPORT NEWS   CLOUDY    54  52  93 NE3       30.12R
LANGLEY AFB    CLOUDY    55  52  90 NE7       30.11R
FORT EUSTIS    CLOUDY    54  53  97 VRB2      30.11R
WILLIAMSBURG*  MOCLDY    55  54  94 CALM      30.13R
HR EXEC AP*    CLOUDY    55  52  88 N3        30.13R
FRANKLIN*      CLOUDY    55  52  92 NE3       30.12R
US460-WAKEFLD  CLOUDY    55  51  86 N3        30.13R
$$

VAZ020-022-025-037-045-301100-
WEST CENTRAL AND SOUTHWEST VIRGINIA

CITY           SKY/WX    TMP DP  RH WIND       PRES   REMARKS
STAUNTON*      CLOUDY    54  54  99 CALM      30.13R FOG
WAYNESBORO*    CLOUDY    52  51  97 MISG      30.12R
HOT SPRINGS VA LGT RAIN  51  51 100 CALM      30.11R VSB<1/4
LYNCHBURG      CLOUDY    53  52  96 NE8       30.13R
DANVILLE       CLOUDY    57  32  38 NE6       30.10R FOG
SOUTH BOSTON*  CLOUDY    57  55  95 CALM      30.10R
MARTINSVILLE   CLOUDY    54  53  96 E3        30.11S
ROANOKE        CLOUDY    55  54  96 SE7       30.12R
BLACKSBURG     CLOUDY    56  55  97 E5        30.13R
DUBLIN*        CLOUDY    57  57 100 E6        30.09F
MARION*        CLOUDY    56  49  78 E3        30.11R
HILLSVILLE*    CLOUDY    55  51  86 E6        30.07S
RICHLANDS*     PTSUNNY   57  48  72 CALM      30.05S
WISE*          CLOUDY    57  45  62 CALM      30.05F
ABINGDON*      FAIR      61  50  65 E5        30.03S
$$

MDZ021>025-VAZ099-100-301100-
SOUTHERN MARYLAND AND THE DELMARVA PENINSULA

CITY           SKY/WX    TMP DP  RH WIND       PRES   REMARKS
PATUXENT RIVER CLOUDY    51  47  86 NE9       30.13S
BAY BRIDGE APT NOT AVBL
LEONARDTOWN    CLOUDY    50  46  87 NE5       30.15R
DOVER          CLOUDY    48  48 100 N7        30.16R
GEORGETOWN     CLOUDY    48  47  96 NE6       30.16R FOG
EASTON         MOCLDY   N/A N/A N/A NE5       30.19R
CAMBRIDGE      CLOUDY    46  45  93 NE6       30.14S
SALISBURY      CLOUDY    48  48 100 N9        30.15R FOG
OCEAN CITY     CLOUDY    50  47  89 NE13      30.13R
WALLOPS ISLAND CLOUDY    50  49  96 N12       30.13R
ACCOMACK*      CLOUDY    50  36  57 NE5       30.12R
$$

NCZ012>017-030>032-301100-
NORTH CENTRAL AND EASTERN NORTH CAROLINA

CITY           SKY/WX    TMP DP  RH WIND       PRES   REMARKS
ROANOKE RAPIDS CLOUDY    55  54  94 NE5       30.11R
RALEIGH        CLOUDY    59  58  96 E7        30.08R FOG
ELIZABETH CITY CLOUDY    55  53  93 N9        30.09S
AHOSKIE*       CLOUDY    55  53  91 CALM      30.11S
EDENTON*       CLOUDY    56  56  99 N6        30.11R
CURRITUCK*     CLOUDY    55  54  96 NE9       30.10S
KILL DEVIL HLS CLOUDY    54  53  98 N3        30.07R FOG
MANTEO         NOT AVBL
CAPE HATTERAS  CLOUDY    58  55  90 NE10G20   30.06R
TARBORO*       CLOUDY    57  55  91 NE6       30.11R
GOLDSBORO      CLOUDY    59  59 100 NE7       30.07R
WASHINGTON     CLOUDY    56  54  92 N5        30.10R
GREENVILLE     CLOUDY    57  55  94 NE5       30.11R
NEW BERN       CLOUDY    59  56  89 NE9       30.10R
WILMINGTON     MOCLDY    61  59  93 NE8       30.04R
$$

VAZ048-301100-
ELSEWHERE

CITY           SKY/WX    TMP DP  RH WIND       PRES   REMARKS
HARRISBURG PA  CLOUDY    45  42  89 NE5       30.18R
BALTIMORE      CLOUDY    49  45  86 NE8       30.15S
ANNAPOLIS      CLOUDY    50  46  86 MISG      30.15R
ANDREWS AFB    CLOUDY    50  48  93 NE7       30.14R
PHILADELPHIA   CLOUDY    49  38  65 NE6       30.20R
HENDERSON NC   CLOUDY    57  57 100 E8        30.10R
GREENSBORO     CLOUDY    59  58  96 E13       30.07R FOG
ROCKY MOUNT    CLOUDY    57  55  93 NE8       30.10R
$$

VAZ100-301100-
MARINE

STATION/POSITION TIME  TEMP    WIND        PRES    WAVE   SWELL
                       AIR SEA DIR/SP/G            HT/PER HT/PER
                 (UTC) (F)     (DEG/KT/KT) (MB)    (FT/S) (FT/S)
BRANDYWINE LGT   0900   48      60/ 14/ 16 1020.4R
CAPE MAY NJ      0900   48 56   40/  4/  6 1019.9R
LEWES DE         0900   50 54   50/ 13/ 15 1020.2R
15NM E FENWICK I 0950   49 51              1019.8R   6/ 8
OCEAN-CITY-INLET 0900   50 53   40/  5/ 11 1018.9R
WACHAPREAGUE VA  0900   51 57   20/  9/ 12 1018.5F
THOMAS POINT MD  1000   49 57   60/  8/  9 1022.3R
GOOSES REEF MD   1000   51 56   60/ 12/ 14 1021.5R   1/ 2
COVE POINT MD    0900   50      60/  9/ 12 1020.7R
SOLOMONS ISLAND  0900   51 59   30/  6/  8   N/A
BISHOPS HEAD MD  0900   51 56   20/  8/ 13 1019.4R
PINEY POINT MD   0900           60/  5/  7   N/A
POTOMAC MD       1000   52 58   40/ 12/ 14 1019.3R   1/ 3
CAMBRIDGE MD     0900   49 60   40/ 11/ 14 1019.7R
LEWISETTA VA     0900   52 59   40/  6/  8 1019.7R
RAPPAHANNOCK LGT 0900           30/ 13/ 15 1019.3F
STINGRAY PT      1000   54 60   40/ 12/ 14 1020.2R   2/ 3
YORK RVR RNG VA  0900   55      30/ 11/ 13 1018.4R
YORKTOWN VA      0900   55 62   10/  7/  8 1019.0R
JAMESTOWN VA     1000   54 66   40/  4/  6   N/A     0
DOMINION TERM VA 0900   55      20/  3/  4 1019.1R
KIPTOPEKE VA     0900      59   50/  3/  5   N/A
CHES BAY BRIDGE  0900   54 58   30/  9/ 11 1018.5R
CAPE HENRY VA    0900   53      40/ 11/ 13   N/A
CHESAPEAKE LGHT  0900   52      30/ 17/ 18 1019.0R
WILLOUBY STN VA  0900   56      40/ 10/ 12 1019.8R
CAPE HENRY BUOY  0912      55                N/A     5/ 8   2/11
CAPE CHARLES BUO 0926      56                N/A     5/10   3/10
OFFSHORE WE BUOY 0951      53                N/A     6/ 6   3/ 7
64NM E OF VA BCH 0950   52 53   10/ 17/ 21 1017.7R   6/ 9   5/ 9
DUCK PIER NC     0900   54 66   20/ 18/ 20 1017.9S
44100 DUCK FRF   0924      56                N/A     5/ 9   2/11
44056 DUCK FRF   0911      58                N/A     4/11   2/11
OREGON INLET NC  0900   55 63   10/ 12/ 19 1017.6F
HATTERAS NC      0900   60 70   10/ 19/ 23 1017.2R
DIAMOND SHLS NC  0950   60 74   20/ 17/ 21 1017.6R   5/ 8   2/ 8
CAPE LOOKOUT NC  1000   61      20/ 12/ 14C1F1C2F2C3F3C4F4C5F5C6F6C7F7C8M1C9!



USA.gov is the U.S. government's official web portal to all federal, state and local government web resources and services.